Flag for U.S.A. Weather past 2 weeks in Grand Rapids, Michigan, U.S.A.

Now
52 °F

Overcast.


Feels Like: 46 °F
Forecast: 42 / 62 °F
Wind: 21 mph from Northwest

Location: Kent County International Airport

Current Time: Sep 21, 2014 at 9:00:08 PM

Latest Report: Sep 21, 2014 at 7:53 PM


Visibility: 10 mi

Pressure: 30.00 "Hg

Humidity: 83%

Dew point: 47 °F

Location of Grand RapidsLocation

Historic Weather in Grand Rapids — Graph

°F

Grand Rapids temperature yesterday

Maximum temperature yesterday: 76 °F (at 1:53 PM)
Minimum temperature yesterday: 59 °F (at 1:53 AM)
Average temperature yesterday: 66 °F

Past Weeks' High & Low Weather Summary

 TemperatureHumidityPressure
High77 °F (Sep 8, 3:53 PM)100% (Sep 7, 2:53 AM)30.36 "Hg (Sep 7, 2:53 AM)
Low41 °F (Sep 17, 4:53 AM)36% (Sep 8, 3:53 PM)29.52 "Hg (Sep 10, 3:53 PM)
Average59 °F80%30.07 "Hg
* Reported Sep 6 7:53 PM — Sep 21 7:53 PM, Grand Rapids, Weather by CustomWeather, © 2014

Note: Actual official high and low records may vary slightly from our data, if they occured in-between our weather recording intervals... More about our weather records

Advertising

Grand Rapids weather history for previous 24 hours

 ConditionsComfort  
Time TempWeatherWind HumidityBarometerVisibility
7:53 PM
Sep 21
52 °FOvercast.21 mph83%30.00 "Hg10 mi
6:53 PM54 °FLight rain. Mostly cloudy.22 mph90%29.96 "Hg7 mi
5:53 PM58 °FPartly sunny.16 mph78%29.92 "Hg10 mi
4:53 PM58 °FMostly cloudy.15 mph81%29.88 "Hg10 mi
3:53 PM57 °FLight rain. Mostly cloudy.23 mph93%29.84 "Hg7 mi
2:53 PM61 °FCloudy.16 mph81%29.79 "Hg10 mi
1:53 PM62 °FBroken clouds.15 mph90%29.75 "Hg10 mi
12:53 PM61 °FPartly sunny.23 mph90%29.73 "Hg10 mi
11:53 AM60 °FMostly cloudy.17 mph86%29.69 "Hg10 mi
10:53 AM59 °FMostly cloudy.13 mph90%29.70 "Hg10 mi
9:53 AM60 °FMostly cloudy.15 mph80%29.68 "Hg10 mi
8:53 AM60 °FBroken clouds.20 mph83%29.67 "Hg10 mi
7:53 AM60 °FMostly cloudy.13 mph86%29.67 "Hg10 mi
6:53 AM61 °FOvercast.15 mph93%29.65 "Hg10 mi
5:53 AM61 °FPassing clouds.16 mph97%29.64 "Hg10 mi
4:53 AM63 °FOvercast.17 mph100%29.62 "Hg10 mi
3:53 AM65 °FLight rain. Partly cloudy.9 mph97%29.62 "Hg10 mi
2:53 AM66 °FLight rain. Mostly cloudy.10 mph100%29.65 "Hg9 mi
1:53 AM66 °FStrong thunderstorms. Fog.10 mph100%29.67 "Hg1 mi
12:53 AM66 °FFog.10 mph100%29.70 "Hg3 mi
11:53 PM
Sep 20
66 °FFog.8 mph100%29.72 "Hg5 mi
10:53 PM67 °FFog.10 mph97%29.75 "Hg4 mi
9:53 PM66 °FFog.10 mph96%29.77 "Hg6 mi
Weather by CustomWeather, © 2014

See weather overviewHow to use our weather pages